User: anonymous   Login
Location: Burgerwiesen
(48.6500°N, 15.6167°E)
Time: 17:40:08
(UTC+00:00)
Language:

STARLINK-1219 - Orbit

View from above orbital plane
View from above orbital plane
View from above satellite
View from above satellite

Ground track
Ground track

The orbit data is extracted from the following two-line orbital elements,

1 45210U 20012AJ  20195.91667824 -.00037900 +00000-0 -25940-2 0  9990
2 45210 052.9974 295.7425 0001075 105.1691 170.0351 15.05607163001798
Epoch (UTC): 13 July 2020 22:00:01
Eccentricity: 0.0001075
inclination: 52.9974°
perigee height: 549 km
apogee height: 550 km
right ascension of ascending node: 295.7425°
argument of perigee: 105.1691°
revolutions per day: 15.05607163
mean anomaly at epoch: 170.0351°
orbit number at epoch: 179

The dashed part of the orbit path shows where the satellite is in the earth's shadow,  

DLR